Regional Weather Roundup
Issued by NWS

Home | Current Version | Previous Version | Text Only | Print | Product List | Glossary On
Versions: 1 2 3 4 5 6 7 8 9 10 11 12 13 14 15 16 17 18 19 20 21 22 23 24 25 26 27 28 29 30 31 32 33 34 35 36 37 38 39 40 41 42 43 44 45 46 47 48 49 50
316
ASUS45 KTFX 282010
RWRMT
MONTANA REGIONAL WEATHER ROUNDUP
NATIONAL WEATHER SERVICE GREAT FALLS MT
200 PM MDT FRI APR 28 2017

NOTE: "FAIR" INDICATES FEW OR NO CLOUDS BELOW 12000 FEET WITH NO
SIGNIFICANT WEATHER AND/OR OBSTRUCTIONS TO VISIBILITY.

MTZ001>007-043-282100-
WEST OF THE DIVIDE

CITY           SKY/WX    TMP DP  RH WIND       PRES   REMARKS
KALISPELL      CLOUDY    50  36  58 VRB3      30.08F
MISSOULA       PTSUNNY   50  33  52 W9        30.12S
BUTTE          CLOUDY    42  19  39 N9        30.04S
MULLAN PASS    FOG       33  31  92 VRB6      30.11R VSB 1/4 WCI  28
ANACONDA         N/A     45  21  39 NE10G16   30.05S
DEER LODGE       N/A     45  25  45 NW12G17   30.09R
EUREKA           N/A     48  36  61 SW12      30.08R
HAMILTON         N/A     48  27  43 N9        30.09S
LIBBY            N/A     52  34  50 SE8       30.07F
PLAINS           N/A     52  34  50 W8        30.12R
THOMPSON FALLS   N/A     46  37  70 SW12      30.18R
$$

MTZ008-052>055-282100-
SOUTHWEST MONTANA

CITY           SKY/WX    TMP DP  RH WIND       PRES   REMARKS
BOZEMAN        CLOUDY    45  31  58 N13       30.01S
DILLON         CLOUDY    47  22  37 N10G22    30.00S
W YELLOWSTONE  CLOUDY    37  23  56 NE13G25   29.94R WCI  29
THREE FORKS      N/A     49 -35   2 N10       30.01S
TWIN BRIDGES     N/A     47  20  34 N9        30.00S
$$

MTZ009-010-012-014-046-048-049-054-282100-
EAST SLOPES AND CENTRAL MONTANA

CITY           SKY/WX    TMP DP  RH WIND       PRES   REMARKS
CUT BANK       CLOUDY    39  32  76 NW7       30.10R
GREAT FALLS    LGT RAIN  42  35  76 S6        30.07R
MALMSTROM AFB  LGT RAIN  42  36  76 S6        30.08R
HELENA         PTSUNNY   50  26  39 NW6       30.04S
AUGUSTA        LGT SNOW  37  37 100 N20       30.08R WCI  26
BOWMANS CRNR   LGT RAIN  41  33  73 NE7       30.05R
CHOTEAU          N/A     43  36  75 N15       30.11R
FAIRFIELD      PTSUNNY   47  35  63 N17G24    30.07R
POWER          PTSUNNY   49  36  61 N18       30.06R
RAYNESFORD     PTSUNNY   46  36  68 SW8       30.06R
ULM              N/A     45  37  72 S7        30.07S
$$

MTZ011-013-016-021-045-047-050-051-282100-
NORTH CENTRAL MONTANA

CITY           SKY/WX    TMP DP  RH WIND       PRES   REMARKS
HAVRE          CLOUDY    49  38  65 NW18G24   30.07R
LEWISTOWN      CLOUDY    43  33  68 N12       30.05R
CHINOOK          N/A     52  36  54 NW8       30.07R
DENTON         PTSUNNY   48  31  51 MISG      30.02R
FORT BENTON      N/A     43  37  81 MISG      30.09S
GEYSER         PTSUNNY   46  28  51 N6        30.05R
GRASS RANGE    LGT RAIN  40  35  80 N5        30.03R
JUDITH GAP     PTSUNNY   40  30  68 N15       30.04R
STANFORD       PTSUNNY   44  27  52 N5        30.05R
WINIFRED       PTSUNNY   45  34  66 SE12      30.05R
$$

MTZ017>020-022>027-061-062-282100-
NORTHEAST MONTANA

CITY           SKY/WX    TMP DP  RH WIND       PRES   REMARKS
GLASGOW        MOSUNNY   55  21  26 W6        30.03R
JORDAN           N/A     54  26  34 VRB7      30.02S
SIDNEY         CLOUDY    54  19  25 SW3       30.05R
WOLF POINT     PTSUNNY   58  18  21 E5        30.04R
PLENTYWOOD       N/A     54  18  24 S6        30.05R
POPLAR           N/A     55  19  24 S6        30.04S
SCOBEY           N/A     54  17  23 SE3       30.03R
$$

MTZ028>42-056>058-282100-
SOUTHCENTRAL AND SOUTHEAST MONTANA

CITY           SKY/WX    TMP DP  RH WIND       PRES   REMARKS
BAKER          SUNNY     52  21  29 SE12      30.03R
BILLINGS       CLOUDY    46  32  58 NE12G18   30.03R
LIVINGSTON     CLOUDY    41  37  86 E17       30.02R
MILES CITY     CLOUDY    52  25  35 E7        30.04R
BIG TIMBER     MOSUNNY   36  36 100 S9        30.06R FOG     WCI  29
EKALAKA          N/A     49  23  36 SE10      30.00R
LAUREL           N/A     45  27  49 E9        30.01F
ROUNDUP          N/A     48  32  54 N12       29.95R
$$

REGIONAL REPORTS...DAKOTAS

CITY           SKY/WX    TMP DP  RH WIND       PRES   REMARKS
WILLISTON      SUNNY     56  23  27 S6        30.05S
MINOT          SUNNY     55  13  18 NW9G20    30.05R
DICKINSON      SUNNY     50  19  29 CALM      30.02R
BEACH            N/A     52  14  22 SE9       30.06R
TIOGA            N/A     52  14  22 NW8       30.06S
WATFORD CITY     N/A     54  25  32 VRB6G13   30.04S
BISMARCK       SUNNY     56  11  16 N15       30.05R
GRAND FORKS    SUNNY     53  27  36 N21G26    30.01R
FARGO          SUNNY     52  24  33 N18       30.01R
BUFFALO SD       N/A     50  23  34 NE14      29.96R
RAPID CITY     CLOUDY    46  27  47 NE14G22   29.99R
$$

REGIONAL REPORTS...WYOMING/IDAHO/WASHINGTON

CITY           SKY/WX    TMP DP  RH WIND       PRES   REMARKS
GILLETTE       CLOUDY    37  30  75 NE9       29.99R WCI  30
SHERIDAN       LGT SNOW  36  33  89 NE3       30.03R FOG
BUFFALO WY     LGT SNOW  35  29  78 N7        30.02R WCI  29
CODY           CLOUDY    37  31  78 N16G23    29.97R WCI  28
YELLOWSTONE LA   N/A     34  19  54 VRB7G21   29.91R WCI  28
IDAHO FALLS    CLOUDY    46  28  49 N14       29.93S
SALMON         CLOUDY    48  21  34 N9G18     30.03S
BOISE          PTSUNNY   54  30  40 NW23G32   30.07S
SPOKANE        PTSUNNY   54  33  45 S9        30.16S
$$

REGIONAL REPORTS...ALBERTA

CITY           SKY/WX    TMP DP  RH WIND       PRES   REMARKS
EDMONTON       PTSUNNY   46  28  49 E2        30.08S
CALGARY        PTSUNNY   43  25  49 N10G17    30.06S
LETHBRIDGE     PTSUNNY   45  32  61 W3        30.10S
MEDICINE HAT   PTSUNNY   46  28  49 NW8       30.09R
CARDSTON         N/A     48  34  57 SW3         N/A
MILK RIVER       N/A     43  34  70 NW8         N/A
$$

REGIONAL REPORTS...SASKATCHEWAN

CITY           SKY/WX    TMP DP  RH WIND       PRES   REMARKS
SWIFT CURRENT  PTSUNNY   41  34  75 W14G23    30.06R
REGINA         PTSUNNY   57  19  23 SW6G18    30.02R
SASKATOON      CLOUDY    46  28  49 E3        30.05R
CYPRESS HILLS    N/A     37  25  60 NW7         N/A
VAL MARIE        N/A     54  27  35 NW7         N/A
ROCKGLEN         N/A     50  28  43 NW9         N/A
ASSINIBOIA       N/A     46  21  36 NE3         N/A
$$




USA.gov is the U.S. government's official web portal to all federal, state and local government web resources and services.